www.pogodaiklimat.ru

Погода и климат >> Архив погоды >> Южная Африка >> Мыс Игольный


ПОГОДА на Мысе Игольном

  • Прогноз погоды на Мысе Игольном
  • Монитор погоды на Мысе Игольном

АРХИВ ПОГОДЫ на Мысе Игольном

Время (UTC), дата Ветер
(напр.,м/с)
 
Видим.   Явления Облачность Т
(С)
Тd
(С)
f
(%)
Тe
(С)
Тes
(С)
Комфортность P
(гПа)
Po
(гПа)
Тmin
(С)
Tmax
(С)
R
(мм)
R24
(мм)
S
(см)
00 14.06 СВ 5 н/о н/о +10.2 +4.3 67 +8 +8 1028.6 1027.3 +9.9 +17.1
06 14.06 С 3 20 км ясно +9.5 +6.2 80 +7 +7 1028.4 1027.1 +8.4
09 14.06 С 2 н/о н/о +15.5 +9.9 69 +15 +15 1028.3 1027.0 +8.4 +15.5
12 14.06 З 3 20 км 3/0
[Cs]
+17.0 +11.3 69 +17 +21 1025.5 1024.2 +8.4 +18.2
15 14.06 СЗ 2 н/о н/о +16.0 +11.2 73 +16 +16 1024.7 1023.4 +16.0 +18.2
18 14.06 С 1 20 км ясно +11.5 +8.7 83 +11 +11 1024.9 1023.6 +11.5 +18.2
00 15.06 СВ 5 н/о н/о +12.3 +7.8 74 +10 +10 1021.3 1020.0 +11.0 +18.2
03 15.06 С 4 н/о н/о +11.0 +8.5 85 +9 +9 1020.2 1018.9 +10.2 +18.2
06 15.06 С 4 20 км ясно +10.7 +8.4 86 +8 +8 1020.1 1018.8 +10.2
09 15.06 СЗ 5 н/о н/о +16.6 +12.6 77 +16 +16 1021.8 1020.5 +10.2 +16.6
12 15.06 СЗ 5 20 км ясно +18.0 +12.3 69 +18 +21 1020.7 1019.4 +10.2 +18.1
15 15.06 СЗ 3 н/о н/о +17.0 +11.9 72 +17 +17 1020.9 1019.6 +17.0 +18.2
18 15.06 С 3 20 км ясно +14.8 +11.0 78 +14 +14 1021.9 1020.6 +14.8 +18.2
21 15.06 С 3 н/о н/о +13.8 +10.4 80 +13 +13 1022.4 1021.1 +13.8 +18.2
00 16.06 штиль 0 н/о н/о +13.1 +10.1 82 +13 +13 1021.3 1020.0 +13.1 +18.2
03 16.06 СВ 4 н/о н/о +13.4 +8.5 72 +12 +12 1020.7 1019.4 +12.8 +18.2
06 16.06 СВ 6 20 км ясно +12.4 +8.5 77 +10 +10 1019.6 1018.3 +11.8
09 16.06 В 5 н/о н/о +16.6 +10.0 65 +16 +16 1018.9 1017.6 +11.8 +16.6
12 16.06 Ю 1 20 км ясно +17.6 +12.3 71 +19 +25 1016.7 1015.4 +11.8 +20.0
15 16.06 СЗ 3 н/о н/о +16.6 +10.3 66 +16 +16 1017.3 1016.0 +16.6 +20.0
18 16.06 С 3 н/о н/о +14.2 +10.6 79 +13 +13 1018.0 1016.7 +13.7 +20.0
21 16.06 СЗ 3 н/о н/о +15.0 +12.8 87 +14 +14 1019.0 1017.7 +13.7 +20.0
00 17.06 С 2 н/о н/о +13.6 +11.6 88 +13 +13 1019.1 1017.8 +13.6 +20.0
03 17.06 С 3 н/о н/о +13.5 +11.5 88 +12 +12 1018.2 1016.9 +13.4 +20.0
06 17.06 С 2 20 км ясно +13.6 +11.6 88 +13 +13 1019.9 1018.6 +12.9
09 17.06 СЗ 2 н/о н/о +17.9 +13.8 77 +18 +18 1021.9 1020.6 +12.9 +17.9
12 17.06 СЗ 3 20 км 3/0
[Cs]
+19.0 +13.4 70 +20 +25 1020.5 1019.2 +12.9 +19.1
15 17.06 СЗ 2 н/о н/о +17.7 +13.4 76 +18 +18 1022.0 1020.7 +17.7 +19.1
00 18.06 штиль 0 н/о н/о +12.4 +10.6 89 +12 +12 1024.2 1022.9 +12.3 +19.1
06 18.06 СВ 6 20 км ясно +12.5 +11.0 91 +10 +10 1023.6 1022.3 +11.8
09 18.06 В 6 н/о н/о +15.6 +10.4 71 +14 +14 1022.5 1021.2 +11.6 +15.6
12 18.06 В 5 20 км 3/0
[Cs]
+20.8 +11.0 53 +23 +26 комфорт 1020.2 1018.9 +11.6 +20.8
15 18.06 В 2 н/о н/о +18.3 +10.0 58 +19 +19 1019.0 1017.7 +18.3 +22.1
18 18.06 СВ 5 н/о н/о +19.2 +6.7 44 +19 +19 1019.8 1018.5 +18.0 +22.1
21 18.06 СВ 3 н/о н/о +21.8 +3.6 30 +22 +22 комфорт 1019.6 1018.4 +18.0 +22.1
00 19.06 С 3 н/о н/о +18.2 +5.5 43 +18 +18 1019.3 1018.0 +16.1 +22.1
03 19.06 СВ 2 н/о н/о +19.4 +4.8 38 +20 +20 1019.0 1017.7 +15.3 +22.1
06 19.06 СЗ 3 20 км 5/0
[Cs]
+17.4 +2.6 37 +17 +17 1020.3 1019.0 +15.3
09 19.06 СЗ 4 н/о н/о +21.9 +2.2 27 +22 +22 комфорт 1021.3 1020.1 +15.3 +21.9
12 19.06 СЗ 3 20 км 3/0
[Cs]
+22.9 +5.9 33 +23 +27 комфорт 1019.7 1018.5 +15.3 +23.5
15 19.06 СЗ 3 н/о н/о +20.4 +6.8 41 +22 +22 комфорт 1019.4 1018.1 +20.4 +23.5
18 19.06 С 2 20 км 10/10 200 м
[Sc diur, vesp]
+18.4 +1.9 33 +19 +19 1020.9 1019.6 +17.8 +23.5
21 19.06 С 2 н/о н/о +16.9 +3.6 41 +18 +18 1021.5 1020.2 +16.9 +23.5
00 20.06 С 2 н/о н/о +17.1 +1.2 34 +17 +17 1021.3 1020.0 +16.5 +23.5
03 20.06 С 2 н/о н/о +16.3 +0.1 33 +17 +17 1020.4 1019.1 +16.1 +23.5
06 20.06 С 1 20 км 5/0
[Cs]
+12.6 +1.9 48 +13 +13 1022.0 1020.7 +12.6
09 20.06 ЮВ 1 н/о н/о +19.8 +7.6 45 +22 +22 комфорт 1021.3 1020.0 +12.5 +19.8
12 20.06 ЮВ 2 20 км 5/0
[Cs]
+19.7 +9.9 53 +22 +27 комфорт 1019.2 1017.9 +12.5 +20.6
15 20.06 В 1 н/о н/о +18.9 +11.0 60 +21 +21 комфорт 1017.4 1016.1 +18.9 +20.6
18 20.06 З 2 н/о н/о +15.0 +8.9 67 +15 +15 1016.5 1015.2 +14.9 +20.6

 

Местоположение метеостанции Мыс Игольный (Южная Африка): широта -34.83 долгота 20.02 высота над уровнем моря 14 м.

В архиве по умолчанию представлена погода на Мысе Игольном за последнюю неделю. Архивные данные за месяц целиком и за предыдущие месяцы, начиная с января 2011 года, Вы можете получить, выбрав интересующий диапазон дат из раскрывающегося списка и нажав кнопку "Ввод!".


*Определитесь, кто Вы:
робот инопланетянин человек

Внимание! Время в таблицах - всемирное. Для получения местного времени необходимо прибавить поправку, которая равна 2 ч.

Смотрите также архив погоды в соседних городах и на ближайших метеорологических станциях:

Погода в Струисбааи (Южная Африка) (6 км)
Погода в Тигерхуке (Южная Африка) (76 км)
Погода в Херманусе (Южная Африка) (86 км)
Погода в Робертсоне (Южная Африка) (115 км)
Погода в Странде (Южная Африка) (132 км)
Погода в Стилбай (Южная Африка) (136 км)
Погода в Риверсдейле (Южная Африка) (140 км)
Погода в Вустере (Южная Африка) (145 км)
Погода на Кейп-Пойнт (Южная Африка) (149 км)
Погода в Парле (Южная Африка) (157 км)

Пояснения к столбцам:

Ветер - указаны скорость ветра в м/с - средняя за 10 мин, порывы в срок и между сроками (в фигурных скобках) и направление, откуда дует ветер: С - северный, СВ - северо-восточный, В - восточный, ЮВ - юго-восточный, Ю - южный, ЮЗ - юго-западный, З - западный, СЗ - северо-западный.
Видимость - горизонтальная дальность видимости в метрах или километрах. При видимости от 1 до 10 км при отсутствии осадков обычно наблюдается дымка, при ухудшении видимости до 1 км и менее - туман. В сухую погоду видимость может ухудшаться дымом, пылью или мглою.
Явления - указаны атмосферные явления, наблюдавшиеся в срок или в последний час перед сроком; фигурными скобками обозначены явления, наблюдавшиеся между сроками (за 1-3 часа до срока); квадратными скобками обозначены град или гололедные отложения с указанием их диаметра в мм.
Облачность - указаны через наклонную черту общая и нижняя облачность в баллах и высота нижней границы облаков в метрах; квадратными скобками обозначены формы облаков: Ci - перистые, Cs - перисто-слоистые, Cc - перисто-кучевые, Ac - высококучевые, As - высокослоистые, Sc - слоисто-кучевые, Ns - слоисто-дождевые, Cu - кучевые, Cb - кучево-дождевые. Подробнее классификацию облаков см. в Атласе облаков (PDF).
T - Температура воздуха - температура, измеренная на высоте 2 м над землей.
Td - Температура точки росы - температура, при понижении до которой содержащийся в воздухе водяной пар достигнет насыщения.
f - Относительная влажность воздуха - влажноcть воздуха, измеренная на высоте 2 м над землей.
Te - Эффективная температура - температура, которую ощущает одетый по сезону человек в тени. Характеристика душности погоды. При расчете учитывается влияние влажности воздуха и скорости ветра на теплоощущения человека.
Tes - Эффективная температура на солнце - температура, которую ощущает человек, с поправкой на солнечный нагрев. Характеристика знойности погоды. Зависит от высоты солнца над горизонтом, облачности и скорости ветра. Ночью, в пасмурную погоду, а также при ветре 12 м/с и более поправка равна нулю.
P - Атмосферное давление - приведенное к уровню моря атмосферное давление.
Po - Атмосферное давление - измеренное на уровне метеостанции атмосферное давление.
Tmin - Минимальная температура - минимум температуры воздуха на высоте 2 м над землей.
Tmax - Максимальная температура - максимум температуры воздуха на высоте 2 м над землей.
R - Количество осадков - Количество выпавших осадков за период времени, мм. При наведении курсора мыши на число - период времени, за который выпало указанное количество осадков.
R24 - Количество осадков - Количество выпавших осадков за 24 часа, мм.
S - Снежный покров - Высота снежного покрова, см. При наведении курсора мыши на число - состояние снежного покрова и степень покрытия местности в баллах.